This is the latest recevied weather packets stored in our database for station/object DH1FR-13. If no packets are shown the sender has not sent any weather packets the latest 1 day(s).
| Time | Temp. | Humidity | Pressure | Rain* | Wind** | Luminosity | Snow |
|---|---|---|---|---|---|---|---|
| 1777973401 | 18.89° C | 76% | 1012.5 hPa | 0 mm | 0 m/s | - | - |
| 1777972801 | 17.78° C | 80% | 1012.5 hPa | 0 mm | 0 m/s | - | - |
| 1777972201 | 16.67° C | 79% | 1012.4 hPa | 0 mm | 0 m/s | - | - |
| 1777971600 | 16.11° C | 84% | 1012.6 hPa | 0 mm | 0 m/s | - | - |
| 1777971001 | 16.11° C | 83% | 1012.6 hPa | 0 mm | 0 m/s | - | - |
| 1777970400 | 15.56° C | 85% | 1012.7 hPa | 0 mm | 0 m/s | - | - |
| 1777969801 | 15.56° C | 86% | 1012.8 hPa | 0 mm | 0 m/s | - | - |
| 1777969201 | 15° C | 86% | 1012.7 hPa | 0 mm | 0 m/s | - | - |
| 1777968600 | 15.56° C | 85% | 1013 hPa | 0 mm | 0 m/s | - | - |
| 1777968001 | 15.56° C | 87% | 1012.7 hPa | 0 mm | 0 m/s | - | - |
| 1777967401 | 15° C | 87% | 1012.9 hPa | 0 mm | 0 m/s | - | - |
| 1777966801 | 14.44° C | 89% | 1012.8 hPa | 0 mm | 0 m/s | - | - |
| 1777966200 | 14.44° C | 89% | 1013.1 hPa | 0 mm | 0 m/s | - | - |
| 1777965601 | 13.89° C | 90% | 1013.2 hPa | 0 mm | 0 m/s | - | - |
| 1777965000 | 13.33° C | 93% | 1012.9 hPa | 0 mm | 0 m/s | - | - |
| 1777964401 | 13.33° C | 93% | 1013.1 hPa | 0 mm | 0 m/s | - | - |
| 1777963801 | 12.78° C | 95% | 1013.1 hPa | 0 mm | 0 m/s | - | - |
| 1777963201 | 12.78° C | 96% | 1013 hPa | 0 mm | 0 m/s | - | - |
| 1777962600 | 12.22° C | 96% | 1013.3 hPa | 0 mm | 0 m/s | - | - |
| 1777961400 | 12.22° C | 98% | 1013.5 hPa | 0 mm | 0 m/s | - | - |
| 1777960801 | 12.22° C | 98% | 1013.3 hPa | 0 mm | 0 m/s | - | - |
| 1777960201 | 12.22° C | 98% | 1013.3 hPa | 0 mm | 0 m/s | - | - |
| 1777959601 | 11.67° C | 99% | 1013.5 hPa | 0 mm | 0 m/s | - | - |
| 1777959001 | 11.67° C | 99% | 1013.4 hPa | 0 mm | 0 m/s | - | - |
| 1777958401 | 11.67° C | 99% | 1013.2 hPa | 0 mm | 0 m/s | - | - |
* Rain latest hour (hover to see other rain measurements)
** Current wind speed in m/s (hover to see current wind gust speed)